Location: Newark
(45.7425°N, 0.7617°W)
Time: 19:16:19
(UTC+00:00)

N. Korean satellite - Pass Details

Date: 25 January 2020
Orbit: 456 x 505 km, 97.2° (Epoch: 19 February)

Event Time Altitude Azimuth Distance (km) Brightness Sun altitude
Rises 05:42:33 0° 15° (NNE) 2,535 10.3 -19.1°
Reaches altitude 10° 05:44:38 10° 20° (NNE) 1,660 9.4 -18.8°
Maximum altitude 05:48:09 59° 100° (E) 565 7.1 -18.2°
Drops below altitude 10° 05:51:43 10° 181° (S) 1,674 9.4 -17.6°
Sets 05:53:49 0° 185° (S) 2,558 10.3 -17.2°
